Regional Weather Roundup
Issued by NWS

Home | Current Version | Previous Version | Text Only | Print | Product List | Glossary Off
Versions: 1 2 3 4 5 6 7 8 9 10 11 12 13 14 15 16 17 18 19 20 21 22 23 24 25 26 27

000
ASUS45 KBOU 250907
RWRCO

WEATHER ROUNDUP FOR COLORADO
NATIONAL WEATHER SERVICE DENVER/BOULDER CO
300 AM MDT TUE JUL 25 2017

NOTE: "FAIR" INDICATES FEW OR NO CLOUDS BELOW 12000 FEET WITH NO
SIGNIFICANT WEATHER AND/OR OBSTRUCTIONS TO VISIBILITY.

COZ001>005-013-030-031-251000-
...NORTHWEST COLORADO...

CITY           SKY/WX    TMP DP  RH WIND       PRES   REMARKS
CRAIG          FAIR      69  49  48 SW10G22   30.20R
HAYDEN         FAIR     N/A N/A N/A NE5       30.21S
MEEKER         FAIR      65  55  70 W9        30.24F
RABBIT EARS PA FAIR      55  39  54 SW7       30.51S
STEAMBOAT SPGS FAIR      61  47  59 N3        30.23R
WALDEN         FAIR      57  41  54 SE7       30.32S
$$

COZ006>008-011-251000-
...WEST CENTRAL VALLEYS...

CITY           SKY/WX    TMP DP  RH WIND       PRES   REMARKS
GRAND JUNCTION LGT RAIN  67  63  87 S3        30.15F
MONTROSE       MOCLDY    65  61  87 CALM      30.23F
EAGLE          FAIR      63  54  72 E6        30.26S
RIFLE          CLOUDY    63  61  93 W6        30.21F
DELTA          LGT RAIN  68  61  78 SE3       30.19S
NUCLA          MOCLDY    63  59  88 CALM      30.26S
$$

COZ017>023-064>068-251000-
...SOUTHWEST COLORADO...

CITY           SKY/WX    TMP DP  RH WIND       PRES   REMARKS
DURANGO        CLOUDY    61  57  87 CALM      30.27S
CORTEZ         CLOUDY    64  62  93 S5        30.20F
PAGOSA SPRINGS MOCLDY    60  57  89 CALM      30.36R
TELLURIDE      RAIN      55  51  88 CALM      30.45S
WOLF CREEK PAS NOT AVBL
$$

COZ009-010-012-014-032>034-037-058>063-251000-
...CENTRAL COLORADO...

CITY           SKY/WX    TMP DP  RH WIND       PRES   REMARKS
ASPEN          MOCLDY    60  50  69 SW5       30.33S
BUENA VISTA    CLOUDY    60  48  63 NW3       30.34S
COPPER MTN     CLOUDY    55  37  50 CALM      30.64S
BERTHOUD PASS  MOCLDY    46  32  57 NW8       30.68S
COTTONWOOD PAS CLOUDY    63  41  45 NW3       30.48S
GUNNISON       LGT RAIN  60  52  74 N8        30.35F
KREMMLING      FAIR      68  45  42 E5        30.29R
LEADVILLE      CLOUDY    53  42  66 CALM      30.46F
MONARCH PASS   LGT RAIN  46  43  87 SW24      30.74S
SALIDA         CLOUDY    70  45  41 W10G16    30.37S
SUNLIGHT       CLOUDY    50  43  76 SW8       30.57R
WILKERSON PASS CLOUDY    52  39  62 SW14G21   30.59S
$$

COZ069>075-251000-
...SAN LUIS VALLEY/SANGRE DE CRISTO MOUNTAINS...

CITY           SKY/WX    TMP DP  RH WIND       PRES   REMARKS
ALAMOSA        MOCLDY    62  53  72 S8        30.33F
DEL NORTE      MOCLDY    60  51  72 W9        30.37S
LA VETA PASS   NOT AVBL
SAGUACHE         N/A    N/A N/A N/A MISG        N/A
$$

COZ035-036-038>040-251000-
...NORTHERN COLORADO FRONT RANGE...

CITY           SKY/WX    TMP DP  RH WIND       PRES   REMARKS
DENVER INTL AP MOCLDY    70  51  51 S7        30.05F
DMNS CITY PARK   N/A     72  46  39 SE12      30.05S
AURORA         MOCLDY    71  53  52 S14       30.08S
FRONT RANGE AP FAIR      72  54  53 S10G21    30.07F
ERIE MUNI ARPT FAIR      65  50  57 CALM      30.03S
BOULDER MUN AP FAIR      68  48  49 NW3       30.05R
CENTENNIAL     FAIR      69  49  48 S8        30.10F
BROOMFIELD     FAIR      73  41  31 W5        30.07F
FORT COLLINS   FAIR      66  49  54 VRB3      30.04S
LONGMONT       FAIR      66  52  60 NW5       30.06R
$$

COZ041-046-047-076>085-087-088-251000-
...PIKES PEAK/PALMER DIVIDE AND SOUTHERN FOOTHILLS...

CITY           SKY/WX    TMP DP  RH WIND       PRES   REMARKS
COLO. SPRINGS  MOCLDY    67  58  72 N7        30.15F
A. F. ACADEMY  MOCLDY    60  48  63 N7        30.17F
SCHRIEVER AFB  MOCLDY    65  55  71 N9        30.15F
CHEYENNE MTN   MOCLDY    70  42  36 NW8       30.15F
ELLICOTT       NOT AVBL
FALCON           N/A     64  54  69 N6        30.22S
FORT CARSON    FAIR      67  51  57 NW8       30.12F
LIMON          FAIR      63  60  90 SE8       30.11S
MONUMENT HILL  FAIR      59  52  77 S9        30.23S
CANON CITY     CLEAR     75  52  43 W15       30.08F
WALSENBURG     FAIR      73  50  43 W14       30.16R
TRINIDAD       FAIR      71  50  47 S5        30.14F
$$

COZ042>045-048>051-090-091-251000-
...NORTHEAST COLORADO...

CITY           SKY/WX    TMP DP  RH WIND       PRES   REMARKS
GREELEY ARPT   FAIR      66  55  67 E7        30.02S
AKRON          FAIR      72  60  66 S13       30.03F
BURLINGTON     FAIR      70  64  81 S13       30.05F
WRAY           NOT AVBL
YUMA           NOT AVBL
STERLING       FAIR      72  63  73 SW6       29.98S
HOLYOKE        FAIR      73  63  68 S8        29.98S
FORT MORGAN    FAIR      70  57  64 SE5       30.02F
$$

COZ086-089-092>099-251000-
...SOUTHEAST COLORADO...

CITY           SKY/WX    TMP DP  RH WIND       PRES   REMARKS
PUEBLO         FAIR      70  51  51 W6        30.03F
LA JUNTA       FAIR      71  59  65 E7        30.03R
LAMAR          FAIR      73  61  65 S8        30.00F
SPRINGFIELD      N/A     67  63  87 S13       30.09S
$$




USA.gov is the U.S. government's official web portal to all federal, state and local government web resources and services.